Wheaton NDB, MN

12:56 AM CST on February 23, 2018 (GMT -0600)
Wheaton Municipal

Weather History for KETH - April, 2013

Change the Weather History Date:

Sunday, April 7, 2013

  Actual Average Record
Temperature  
Mean Temperature 34 °F -  
Max Temperature 37 °F 53 °F 120 °F (2001)
Min Temperature 30 °F 30 °F -27 °F (2001)
Degree Days  
Heating Degree Days 32    
Moisture  
Dew Point 31 °F    
Average Humidity 91    
Maximum Humidity 100    
Minimum Humidity 81    
Precipitation  
Precipitation 0.06 in - - ()
Sea Level Pressure  
Sea Level Pressure 29.86 in    
Wind  
Wind Speed 7 mph (NE)    
Max Wind Speed 14 mph    
Max Gust Speed 16 mph    
Visibility 8 miles    
Events Rain , Snow    
Averages and records for this station are not official NWS values.
T = Trace of Precipitation, MM = Missing Value Source: NWS Daily Summary

Daily Weather History Graph

Daily Weather History Graph

Search for Another Location

Airport or City:

Trip Planner

Search our weather history database for the weather conditions in past years. The results will help you decide how hot, cold, wet, or windy it might be!

Date:

Astronomy

Apr. 07, 2013 Rise Set
Actual Time 6:54 AM CDT 8:02 PM CDT
Civil Twilight 6:23 AM CDT 8:33 PM CDT
Nautical Twilight 5:47 AM CDT 9:10 PM CDT
Astronomical Twilight 5:08 AM CDT 9:49 PM CDT
Moon 5:20 AM CDT (4/7) 5:29 PM CDT (4/7)
Length of Visible Light 14h 09m
Length of Day
13h 08m
Waning Crescent, 8% of the Moon is Illuminated
Apr 7
Waning Crescent
Apr 10
New
Apr 18
First Quarter
Apr 25
Full
May 2
Last Quarter

Hourly Weather History & Observations

Time (CDT) Temp. Windchill Dew Point Humidity Pressure Visibility Wind Dir Wind Speed Gust Speed Precip Events Conditions
12:14 AM 32.0 °F 24.8 °F 30.2 °F 93% 29.87 in 7.0 mi WNW 8.1 mph - N/A   Mostly Cloudy
12:34 AM 32.0 °F 22.5 °F 30.2 °F 93% 29.87 in 10.0 mi NW 12.7 mph - N/A   Overcast
12:54 AM 32.0 °F 23.6 °F 30.2 °F 93% 29.87 in 10.0 mi NNW 10.4 mph - N/A   Overcast
1:14 AM 32.0 °F 23.0 °F 30.2 °F 93% 29.87 in 10.0 mi NW 11.5 mph - N/A   Overcast
1:34 AM 32.0 °F 23.6 °F 28.4 °F 87% 29.88 in 10.0 mi NW 10.4 mph - N/A   Overcast
1:54 AM 32.0 °F 23.0 °F 28.4 °F 87% 29.88 in 10.0 mi NW 11.5 mph 16.1 mph N/A   Overcast
2:15 AM 32.0 °F 23.0 °F 28.4 °F 87% 29.88 in 10.0 mi NNW 11.5 mph - N/A   Overcast
2:35 AM 30.2 °F 21.9 °F 28.4 °F 93% 29.88 in 10.0 mi NNW 9.2 mph - N/A   Overcast
2:55 AM 30.2 °F 21.9 °F 28.4 °F 93% 29.88 in 10.0 mi NW 9.2 mph - N/A   Overcast
3:15 AM 30.2 °F 21.9 °F 28.4 °F 93% 29.88 in 10.0 mi NNW 9.2 mph - N/A   Overcast
3:34 AM 30.2 °F 21.9 °F 28.4 °F 93% 29.88 in 10.0 mi WNW 9.2 mph - N/A   Overcast
3:54 AM 30.2 °F 22.6 °F 28.4 °F 93% 29.88 in 10.0 mi WNW 8.1 mph - N/A   Overcast
4:14 AM 30.2 °F 23.4 °F 28.4 °F 93% 29.89 in 10.0 mi NW 6.9 mph - N/A   Overcast
4:34 AM 30.2 °F 25.4 °F 28.4 °F 93% 29.88 in 10.0 mi NW 4.6 mph - N/A   Overcast
4:55 AM 30.2 °F - 28.4 °F 93% 29.89 in 10.0 mi Calm Calm - N/A   Overcast
5:15 AM 32.0 °F 28.7 °F 28.4 °F 87% 29.90 in 10.0 mi West 3.5 mph - N/A   Overcast
5:34 AM 32.0 °F 27.5 °F 28.4 °F 87% 29.91 in 10.0 mi West 4.6 mph - N/A   Overcast
5:54 AM 32.0 °F 26.4 °F 28.4 °F 87% 29.91 in 10.0 mi WNW 5.8 mph - N/A   Overcast
6:14 AM 32.0 °F 27.5 °F 28.4 °F 87% 29.90 in 10.0 mi WNW 4.6 mph - N/A   Overcast
6:34 AM 30.2 °F - 28.4 °F 93% 29.90 in 10.0 mi Calm Calm - N/A   Overcast
6:55 AM 30.2 °F 26.7 °F 28.4 °F 93% 29.91 in 10.0 mi WNW 3.5 mph - N/A   Overcast
7:14 AM 32.0 °F - 28.4 °F 87% 29.92 in 10.0 mi Calm Calm - N/A   Overcast
7:34 AM 32.0 °F - 28.4 °F 87% 29.91 in 10.0 mi Calm Calm - N/A   Overcast
7:54 AM 32.0 °F - 28.4 °F 87% 29.91 in 10.0 mi Calm Calm - N/A   Overcast
8:14 AM 32.0 °F - 30.2 °F 93% 29.92 in 10.0 mi Calm Calm - N/A   Overcast
8:34 AM 32.0 °F 28.7 °F 30.2 °F 93% 29.92 in 10.0 mi West 3.5 mph - N/A   Overcast
8:54 AM 33.8 °F - 30.2 °F 87% 29.92 in 10.0 mi Calm Calm - N/A   Overcast
9:14 AM 33.8 °F - 30.2 °F 87% 29.92 in 10.0 mi Calm Calm - N/A   Overcast
9:34 AM 33.8 °F - 30.2 °F 87% 29.92 in 10.0 mi Calm Calm - N/A   Overcast
9:54 AM 33.8 °F - 30.2 °F 87% 29.92 in 10.0 mi Calm Calm - N/A   Overcast
10:15 AM 33.8 °F - 30.2 °F 87% 29.92 in 10.0 mi Calm Calm - N/A   Overcast
10:35 AM 33.8 °F - 30.2 °F 87% 29.92 in 10.0 mi Calm Calm - N/A   Overcast
10:55 AM 33.8 °F - 30.2 °F 87% 29.92 in 10.0 mi Calm Calm - N/A   Overcast
11:15 AM 33.8 °F 30.8 °F 30.2 °F 87% 29.91 in 10.0 mi ESE 3.5 mph - N/A   Overcast
11:35 AM 33.8 °F - 30.2 °F 87% 29.91 in 10.0 mi Calm Calm - N/A   Overcast
11:54 AM 33.8 °F 29.6 °F 30.2 °F 87% 29.92 in 10.0 mi SSE 4.6 mph - N/A   Overcast
12:15 PM 33.8 °F 30.8 °F 30.2 °F 87% 29.92 in 10.0 mi ESE 3.5 mph - N/A   Overcast
12:35 PM 33.8 °F 30.8 °F 30.2 °F 87% 29.91 in 10.0 mi SSE 3.5 mph - N/A   Overcast
12:55 PM 35.6 °F 29.9 °F 30.2 °F 81% 29.90 in 10.0 mi SE 6.9 mph - N/A   Overcast
1:14 PM 35.6 °F 29.9 °F 32.0 °F 87% 29.88 in 10.0 mi ESE 6.9 mph - N/A   Overcast
1:34 PM 35.6 °F 28.6 °F 30.2 °F 81% 29.87 in 10.0 mi ESE 9.2 mph - N/A   Overcast
1:54 PM 35.6 °F 28.6 °F 30.2 °F 81% 29.87 in 10.0 mi ESE 9.2 mph - N/A   Overcast
2:14 PM 35.6 °F 28.0 °F 32.0 °F 87% 29.85 in 10.0 mi ESE 10.4 mph - N/A   Overcast
2:35 PM 35.6 °F 27.1 °F 32.0 °F 87% 29.84 in 7.0 mi ESE 12.7 mph - N/A   Overcast
2:54 PM 35.6 °F 27.5 °F 32.0 °F 87% 29.84 in 7.0 mi SE 11.5 mph - N/A   Overcast
3:15 PM 35.6 °F 26.6 °F 32.0 °F 87% 29.82 in 7.0 mi SE 13.8 mph - N/A   Overcast
3:35 PM 35.6 °F 27.1 °F 32.0 °F 87% 29.82 in 10.0 mi SE 12.7 mph - N/A   Overcast
3:54 PM 35.6 °F 27.1 °F 33.8 °F 93% 29.82 in 10.0 mi SE 12.7 mph - N/A   Overcast
4:14 PM 37.4 °F 29.3 °F 33.8 °F 87% 29.81 in 7.0 mi SE 12.7 mph - N/A   Overcast
4:34 PM 35.6 °F 27.5 °F 33.8 °F 93% 29.81 in 7.0 mi SE 11.5 mph - N/A   Overcast
4:54 PM 35.6 °F 27.1 °F 33.8 °F 93% 29.81 in 7.0 mi SE 12.7 mph - N/A   Overcast
5:14 PM 35.6 °F 28.6 °F 33.8 °F 93% 29.82 in 7.0 mi SSE 9.2 mph - N/A   Overcast
5:34 PM 35.6 °F 30.7 °F 33.8 °F 93% 29.81 in 7.0 mi SSE 5.8 mph - N/A   Light Drizzle
5:54 PM 35.6 °F 31.7 °F 33.8 °F 93% 29.81 in 7.0 mi SE 4.6 mph - N/A   Mostly Cloudy
6:14 PM 35.6 °F 32.8 °F 33.8 °F 93% 29.82 in 5.0 mi SE 3.5 mph - N/A   Drizzle
6:34 PM 35.6 °F 32.8 °F 33.8 °F 93% 29.81 in 7.0 mi SE 3.5 mph - N/A   Overcast
6:54 PM 35.6 °F 31.7 °F 33.8 °F 93% 29.79 in 5.0 mi NE 4.6 mph - N/A Rain Rain
7:14 PM 35.6 °F 32.8 °F 33.8 °F 93% 29.79 in 5.0 mi NE 3.5 mph - N/A   Drizzle
7:34 PM 35.6 °F 32.8 °F 33.8 °F 93% 29.79 in 4.0 mi NE 3.5 mph - N/A Rain Rain
7:54 PM 35.6 °F - 33.8 °F 93% 29.79 in 4.0 mi Calm Calm - N/A Rain Light Rain
8:14 PM 35.6 °F 32.8 °F 33.8 °F 93% 29.78 in 3.0 mi NE 3.5 mph - N/A Rain Rain
8:34 PM 35.6 °F 32.8 °F 33.8 °F 93% 29.78 in 2.5 mi NNE 3.5 mph - 0.02 in Rain Light Rain
8:55 PM 35.6 °F 31.7 °F 33.8 °F 93% 29.78 in 2.5 mi NNE 4.6 mph - 0.04 in Snow Light Snow
9:14 PM 33.8 °F 27.7 °F 33.8 °F 100% 29.78 in 2.5 mi NNE 6.9 mph - N/A Snow Light Snow
9:34 PM 33.8 °F 28.6 °F 33.8 °F 100% 29.78 in 2.5 mi North 5.8 mph - 0.02 in Rain Light Rain
9:55 PM 33.8 °F 27.7 °F 33.8 °F 100% 29.78 in 2.5 mi NNE 6.9 mph - 0.02 in   Overcast
10:14 PM 33.8 °F 27.7 °F 33.8 °F 100% 29.77 in 2.5 mi North 6.9 mph - N/A   Overcast
10:35 PM 33.8 °F 28.6 °F 33.8 °F 100% 29.78 in 2.5 mi NNE 5.8 mph - N/A   Overcast
10:55 PM 35.6 °F 29.9 °F 33.8 °F 93% 29.76 in 2.5 mi NE 6.9 mph - N/A   Overcast
11:15 PM 35.6 °F 28.6 °F 35.6 °F 100% 29.75 in 2.5 mi ENE 9.2 mph - N/A   Overcast
11:35 PM 35.6 °F 29.2 °F 35.6 °F 100% 29.75 in 2.5 mi ENE 8.1 mph - N/A   Overcast
11:55 PM 35.6 °F 29.9 °F 35.6 °F 100% 29.76 in 2.5 mi ENE 6.9 mph - N/A   Overcast